Погода в Руновщине

Украина / Полтавская область     49°41′50″N   34°45′11″E
темп.,
°C
ветер,
м/с
пор.,
м/с
влажн.,
%
обл.,
%
осадки,
мм/ч
давл.,
гПа
погр.,
м
12 мая, ср
ср1200:00+8всв61174100 0.0 1018926
03:00+8всв6118593 0.4 1017850
06:00+8в71185100 0.2 1018894
09:00+8в7128380 0.4 10181137
12:00+10всв81075100 0.3 10171167
15:00+10в6978100 0.4 10151061
18:00+9вюв3785100 0.7 1014555
21:00+7всв389558 1.1 1013186
13 мая, чт
чт1300:00+6юв369561 0.1 1012127
03:00+5ююв369793 0.1 1013127
06:00+6ююв2595100 0.0 1014168
09:00+11ююв467616 0.0 1014741
12:00+16ю4552100 0.0 10141504
15:00+18ю45476 0.0 10131591
18:00+18ю3557100 0.0 10131388
21:00+14в3377100 0.0 101337
14 мая, пт
пт1400:00+14в3108080 0.1 1012226
03:00+12вюв3991100 0.1 1011159
06:00+12вюв41093100 0.0 1011231
09:00+19ююв577515 0.1 1010605
12:00+23ююв5755100 0.0 10101280
15:00+24ю6849100 0.0 10091615
18:00+23ююз3758100 0.0 1009423
21:00+17ююз3370100 0.0 101052
15 мая, сб
сб1500:00+15ююз33747 0.0 101054
03:00+14ююз22895 0.0 101040
06:00+13юз359017 0.0 1011120
09:00+18ююз4668100 0.0 1011605
12:00+21юз5757100 0.1 10121588
15:00+20зюз465967 0.5 10121390
18:00+20зюз34620 0.6 10131276
21:00+15ссз228428 0.7 101422
16 мая, вс
вс1600:00+13ссв33860 0.0 101437
03:00+12всв229171 0.0 101425
06:00+13всв359178 0.0 101498
09:00+19всв456895 0.0 1014559
12:00+22всв4554100 0.0 10141271
15:00+23всв565098 0.0 10121499
18:00+23всв576133 0.0 1011806
21:00+17св5138333 0.0 1011325